Theta_e
295 295 295 295 295 295 295 295 295 295 295 295 295 296 297 301 306 304 304 306 308 306 303 304 305 305 304 304 302 302 301 301 300 300 299 298 298 302 302 303 303 303 302 301 301 299 300 303 302 303 301 300 299 297
295 295 295 295 295 295 295 294 295 295 295 295 295 295 295 297 298 303 305 306 307 306 301 302 303 304 304 304 304 301 303 300 302 298 295 296 299 297 301 302 302 303 301 302 301 301 300 302 301 301 300 299 298 297
294 294 294 294 294 295 295 295 293 294 295 295 295 295 295 295 298 300 302 302 305 302 301 301 302 303 303 304 303 304 302 301 302 304 301 295 298 298 300 301 302 302 302 301 301 300 300 300 300 299 299 298 297 296
294 294 293 294 294 295 295 295 294 293 294 295 297 297 295 296 297 297 299 300 300 301 300 301 300 301 303 304 303 304 305 302 303 306 304 289 296 299 297 299 300 301 302 301 300 298 299 299 299 299 299 297 296 294
295 295 295 295 295 295 295 294 294 293 293 294 295 295 296 296 296 299 299 299 299 298 296 300 300 299 300 303 304 304 305 304 305 304 298 293 298 297 295 295 295 301 300 300 300 302 301 301 301 299 298 296 295 294
293 293 293 292 292 293 293 293 293 293 293 294 294 295 296 296 296 297 297 298 298 298 300 293 300 299 300 302 304 304 304 304 303 302 299 299 300 298 288 294 299 300 302 302 302 301 301 301 300 298 297 295 294 293
291 291 290 290 291 292 292 292 293 293 294 296 298 298 298 297 295 296 297 299 299 299 299 298 299 299 299 301 302 302 302 302 301 300 299 299 300 299 285 291 299 300 300 301 301 302 299 299 298 297 295 294 293 292
290 290 290 291 291 292 292 293 293 295 296 298 297 297 297 297 297 298 299 300 299 298 300 293 297 299 300 299 299 299 299 299 298 297 297 298 298 297 293 298 299 300 300 301 301 301 300 299 297 295 293 293 292 291
291 291 291 291 292 293 293 294 295 296 297 298 297 297 297 298 297 297 297 298 297 297 299 297 295 299 299 298 298 298 298 291 296 296 297 297 289 295 297 298 299 299 300 300 299 298 298 297 296 294 292 290 290 290
291 291 291 292 293 293 293 293 294 295 296 297 296 296 297 297 297 297 297 297 297 298 298 296 297 298 298 296 295 296 296 289 289 292 296 295 297 297 298 298 299 299 299 299 299 296 296 295 294 293 291 290 290 290
292 291 291 292 292 292 292 293 293 294 295 295 294 295 296 296 295 296 296 296 295 295 297 297 298 297 297 294 292 295 289 292 293 295 294 295 297 298 299 299 298 298 299 299 299 299 297 296 295 292 290 290 290 289
293 292 292 292 292 292 292 292 292 293 294 295 295 295 295 295 295 292 290 295 294 295 296 298 300 299 298 298 297 294 293 295 297 295 295 297 295 299 299 299 298 298 299 299 298 298 296 294 292 291 290 289 288 288
295 293 292 292 292 292 292 292 292 294 295 294 294 294 294 293 287 292 291 295 293 296 297 298 300 300 300 299 296 295 299 298 296 298 297 295 298 299 298 298 298 298 298 297 297 295 293 292 291 290 289 287 287 287
295 294 292 292 292 292 292 292 293 294 294 293 293 287 288 289 292 293 293 294 296 297 298 298 298 299 299 299 296 298 296 295 299 299 297 295 299 298 298 297 296 297 297 296 295 293 292 291 291 289 288 288 287 287
294 294 292 292 292 292 292 292 292 293 293 293 292 287 291 292 294 295 295 296 299 299 299 298 298 297 297 295 295 296 296 297 296 296 294 300 300 299 297 297 296 295 295 294 293 292 292 291 290 289 288 287 287 287
293 293 292 292 292 292 292 291 291 292 292 292 293 292 292 292 293 295 295 296 299 299 299 298 296 295 296 296 298 295 298 297 297 296 300 300 300 298 297 298 297 296 295 293 292 291 291 290 289 288 288 287 287 286
293 292 292 293 293 292 291 291 291 291 291 291 291 292 292 293 294 297 297 298 298 299 298 298 298 297 295 297 298 296 296 296 299 299 300 301 301 300 299 300 299 297 295 293 291 290 290 289 288 288 288 288 287 286
292 292 291 292 292 291 292 292 292 291 291 291 291 291 292 293 294 296 296 295 296 297 298 297 297 298 296 299 298 296 298 299 300 300 301 301 301 301 300 300 300 297 295 292 290 290 289 289 288 288 288 287 287 286
292 292 291 291 291 291 291 290 290 289 289 290 290 291 291 291 292 292 292 292 292 295 296 297 296 296 297 298 298 297 297 297 298 299 300 301 301 301 300 298 298 297 295 293 291 290 289 289 289 288 288 287 287 287
291 292 291 290 290 290 289 288 289 288 289 289 290 290 290 290 290 290 291 291 292 294 293 293 293 297 298 297 297 299 298 297 296 295 299 300 300 299 299 298 297 296 294 292 291 290 289 289 289 288 288 288 288 286
290 289 289 289 288 287 286 286 287 288 288 289 289 289 289 289 289 289 289 289 290 291 291 293 294 294 295 297 296 295 294 294 294 295 295 296 298 298 298 297 295 294 293 293 293 291 290 290 289 289 289 288 287 286
287 287 287 286 286 286 286 286 287 288 289 289 289 289 289 289 289 289 289 289 289 289 289 290 290 289 290 291 291 291 291 293 293 294 294 295 296 298 298 297 295 294 294 294 293 293 291 290 289 289 288 287 286 285
286 286 285 285 285 285 285 285 286 286 286 286 288 289 289 289 290 290 290 290 290 290 289 289 289 290 290 290 290 290 292 292 292 293 294 295 297 297 299 298 297 295 295 294 293 293 292 290 289 288 288 287 286 285
284 285 285 285 286 283 286 286 286 287 287 287 285 285 287 287 288 289 289 288 288 288 288 290 290 290 290 291 291 290 291 293 293 292 294 296 298 298 298 299 299 298 297 296 295 293 292 291 290 289 288 287 287 286
284 283 283 283 284 284 282 283 286 287 282 285 285 281 286 288 282 282 287 288 288 289 290 289 289 289 292 292 292 292 291 292 291 292 293 295 296 297 298 299 299 299 298 298 298 296 295 293 292 291 289 288 288 288
276 281 282 281 281 281 283 278 276 279 282 282 285 286 286 284 281 282 288 288 288 288 290 292 292 292 292 292 292 292 292 292 292 293 293 294 295 296 297 297 297 299 300 300 299 299 298 296 294 293 293 291 289 288
277 278 282 282 283 284 283 285 285 284 277 278 283 282 279 280 277 285 288 287 287 287 288 288 288 291 292 292 292 293 293 293 294 294 294 294 295 296 296 296 296 296 298 298 297 298 299 299 298 297 296 294 293 291
282 281 277 283 283 284 281 282 279 278 282 285 286 282 278 280 283 287 287 287 286 286 286 286 288 289 291 291 291 290 290 291 292 293 295 296 297 297 297 297 297 297 297 297 297 297 298 298 298 298 298 297 296 294
282 282 282 281 282 283 283 282 283 284 285 285 281 280 285 286 286 286 286 285 286 286 286 286 288 289 289 289 289 289 289 289 289 290 290 291 292 293 293 295 297 297 297 297 297 298 299 299 298 299 299 298 297 296
282 282 282 280 276 275 282 283 283 283 284 284 284 284 283 283 283 283 283 284 285 285 285 285 286 287 287 288 289 289 288 288 288 289 290 290 290 291 291 292 293 294 295 297 298 298 298 299 299 300 300 299 298 297
282 282 282 281 280 282 282 282 282 283 283 283 283 282 282 282 282 283 283 283 284 285 285 285 285 286 287 288 287 287 287 288 288 288 288 288 289 291 290 291 291 292 294 294 294 296 298 299 299 299 299 299 299 298
282 282 282 273 281 282 282 282 282 282 282 282 282 282 282 282 283 283 283 283 284 285 285 286 286 286 287 287 287 286 286 286 287 287 287 287 287 288 290 291 293 293 294 292 293 294 296 297 298 299 299 298 298 299
280 281 281 281 281 281 281 281 282 282 282 282 282 282 282 282 282 283 283 283 284 286 286 285 285 285 285 286 286 285 285 286 286 287 288 289 289 290 291 292 293 293 293 293 293 294 295 296 298 298 299 299 298 297
Wind_Speed
26 26 25 25 24 22 20 18 18 18 17 11 11 14 15 18 22 21 18 17 11 5 7 6 6 7 7 7 5 11 6 1 3 2 3 3 3 5 3 4 6 6 6 4 3 1 8 9 4 6 5 11 9 7
21 21 22 21 20 18 18 17 17 16 14 12 11 11 14 16 19 21 20 16 13 8 7 10 10 8 6 6 6 18 2 5 8 4 1 3 1 1 3 2 2 3 6 5 8 5 2 12 3 6 8 5 5 5
18 17 17 17 16 17 17 16 16 17 14 13 12 12 13 16 18 21 17 15 15 10 9 7 8 8 6 8 9 6 6 7 7 6 8 2 2 3 3 4 2 3 6 3 2 3 8 10 11 11 7 5 4 4
19 19 18 16 15 13 13 14 14 14 14 14 12 10 10 12 14 16 19 18 13 9 6 3 5 5 3 3 8 5 3 11 12 7 4 3 3 7 3 3 4 5 5 4 2 2 5 14 17 13 9 6 4 2
16 15 15 15 15 15 13 13 13 12 13 13 12 11 11 12 13 13 16 18 17 9 5 8 10 5 2 3 3 5 9 12 9 4 3 2 4 4 1 2 3 10 6 5 5 11 7 4 22 16 11 6 5 5
16 15 13 11 12 13 13 13 14 13 13 12 11 12 11 13 16 16 6 6 9 10 6 2 4 6 6 5 7 10 10 8 4 4 3 3 3 1 2 3 8 11 13 10 2 4 13 4 13 15 11 8 6 8
13 12 13 14 14 14 14 15 15 15 14 13 12 12 10 9 9 6 7 9 11 9 5 5 3 3 5 5 6 7 7 5 4 5 3 4 3 3 2 3 5 9 12 11 9 8 9 13 9 13 9 7 8 9
14 15 15 15 16 16 16 16 15 15 15 15 14 14 15 14 14 14 12 11 11 7 5 4 2 4 4 3 3 3 3 3 3 2 3 2 3 3 4 15 8 8 8 9 13 12 5 11 9 12 10 9 7 7
14 15 16 17 16 15 14 14 14 14 14 14 13 13 13 7 7 11 12 9 6 5 5 3 3 3 5 4 3 3 3 3 1 1 1 3 1 5 7 7 11 13 11 10 14 9 6 9 12 12 10 11 8 7
14 14 15 16 15 14 13 13 13 13 13 12 10 5 5 6 10 7 3 3 2 4 4 5 5 2 4 3 2 2 3 1 1 3 3 2 4 20 21 14 8 7 14 11 15 12 13 12 11 11 10 8 8 6
13 13 14 14 13 12 11 11 12 11 11 7 3 4 11 8 4 4 4 6 4 3 3 4 4 5 4 3 3 2 2 1 1 2 2 2 3 4 6 8 16 16 14 15 14 9 8 7 10 12 11 8 7 7
12 11 12 12 11 10 9 9 10 9 5 5 10 11 5 3 4 6 2 1 2 1 3 4 5 4 5 3 4 4 2 2 3 6 0 3 4 8 8 3 7 16 17 16 16 10 7 6 8 9 7 8 9 10
12 11 11 11 10 9 8 8 9 8 10 6 4 3 3 4 7 3 2 1 1 5 6 6 4 3 4 2 5 2 2 2 6 2 3 4 6 7 5 4 7 12 16 16 13 9 7 7 8 7 8 11 12 14
16 13 12 11 10 9 8 9 8 7 3 3 4 5 3 2 0 2 3 3 1 3 12 13 7 3 2 3 3 3 2 2 0 1 4 4 11 9 5 8 10 13 14 13 11 9 7 7 9 10 9 13 14 15
20 16 14 12 10 9 8 7 6 5 3 3 2 1 1 1 0 2 1 2 2 8 15 9 4 2 2 3 1 2 1 2 4 4 3 7 11 6 8 11 13 12 12 11 10 9 9 9 10 12 15 15 15 15
23 19 15 13 11 9 8 7 7 5 2 2 2 2 2 1 1 2 1 2 4 15 10 2 3 1 2 2 2 4 2 3 3 4 7 12 6 7 9 11 11 11 11 10 10 10 11 12 13 15 17 16 15 14
23 17 18 16 13 10 9 9 5 2 1 0 1 3 2 1 2 4 4 2 9 10 2 1 2 4 3 1 2 4 4 3 7 12 13 10 6 4 7 9 9 9 11 12 13 13 13 15 16 17 17 17 16 15
21 17 16 13 13 11 8 5 2 1 1 2 2 0 5 4 4 4 5 9 3 3 2 1 2 3 3 3 2 2 7 14 10 10 8 6 5 4 5 7 7 8 11 14 14 14 15 17 18 17 16 17 17 17
21 18 15 12 12 9 4 4 2 1 2 2 7 8 5 5 6 7 7 7 5 7 3 3 3 3 3 4 5 8 14 20 18 16 10 5 4 3 5 7 8 8 11 14 15 16 16 16 17 17 17 18 17 17
19 23 20 19 14 5 3 3 4 1 1 3 7 9 9 11 14 13 9 5 7 6 5 4 7 4 5 2 4 6 8 15 20 23 17 13 7 6 7 8 9 9 12 14 15 15 16 17 17 18 17 17 18 17
21 18 16 16 11 5 3 3 3 3 2 4 3 7 7 11 12 14 15 13 12 7 7 10 14 16 14 8 9 12 14 18 21 19 18 19 18 13 11 11 11 12 15 17 17 17 17 16 16 18 15 15 14 15
18 15 15 10 3 4 2 5 3 2 3 3 3 4 4 4 6 8 10 8 7 16 17 20 23 25 27 27 28 27 25 18 17 18 17 18 20 15 14 14 14 17 17 17 17 17 15 14 13 14 14 13 14 17
16 13 7 4 3 5 2 4 4 4 2 2 3 3 4 5 5 4 3 4 4 8 9 15 21 24 28 28 25 24 21 22 22 20 19 17 17 20 12 12 12 14 14 14 15 17 15 14 14 14 14 16 16 18
12 6 3 5 4 3 4 4 4 3 4 3 2 2 3 4 2 4 3 9 19 20 20 11 12 16 18 21 25 26 24 21 21 22 22 19 21 18 15 10 10 10 11 10 10 14 16 17 17 17 17 19 19 19
5 4 3 3 5 3 2 2 3 5 3 4 2 3 3 3 1 1 2 11 13 14 15 19 20 20 20 26 26 26 27 23 24 23 22 21 23 20 20 19 17 14 12 13 13 13 16 18 20 21 20 22 22 22
2 4 6 8 5 4 5 3 3 5 3 1 3 3 1 1 2 4 1 6 8 11 12 7 9 13 16 15 13 17 19 19 18 20 19 19 22 23 26 25 22 22 19 15 14 15 15 17 21 22 23 23 24 24
3 4 5 7 4 4 2 4 3 2 3 4 2 2 2 1 4 2 5 9 8 12 13 16 17 14 13 16 15 4 2 5 12 15 14 18 19 20 24 28 29 23 15 16 17 17 17 17 19 21 22 24 25 25
6 7 5 8 7 5 3 1 2 4 4 5 6 3 5 6 4 6 1 7 11 14 18 18 15 14 11 8 12 15 10 7 8 9 12 13 14 15 17 20 21 18 17 20 21 20 20 20 22 22 23 23 23 24
6 7 10 7 6 6 7 10 6 6 5 3 5 2 3 5 4 11 15 17 16 17 21 20 16 11 9 12 12 11 13 12 13 14 15 15 12 9 12 15 17 21 21 23 23 22 21 20 20 19 18 20 21 21
9 14 8 7 6 5 8 12 6 9 14 13 8 8 13 17 21 23 23 22 22 23 21 20 17 17 17 13 11 11 13 15 14 13 13 14 14 14 16 16 15 17 22 24 24 24 23 22 23 24 25 25 26 27
6 20 7 9 6 10 15 13 14 16 16 16 17 17 22 27 29 29 26 24 20 17 18 20 20 18 16 15 15 15 15 14 15 15 15 14 14 15 17 21 23 22 20 24 28 27 25 25 25 27 28 29 29 29
10 12 8 3 7 15 16 15 15 16 18 21 25 28 27 23 19 23 23 20 17 18 19 19 19 14 10 12 14 14 15 15 16 17 19 19 19 18 20 19 18 21 23 24 24 29 31 29 29 30 31 31 32 30
6 6 7 4 3 3 8 7 4 6 12 19 24 26 28 22 11 19 22 19 16 13 10 10 8 10 12 12 11 12 14 15 15 14 14 15 16 17 19 20 20 22 22 24 27 26 31 33 32 33 33 34 32 31
Wind_Direction
113 115 118 118 117 122 122 124 128 135 144 161 171 173 178 187 191 193 191 197 180 121 134 170 160 151 154 168 141 151 95 231 69 108 133 208 158 218 168 169 171 163 155 193 144 180 280 161 121 177 169 144 186 206
118 116 116 114 115 115 114 114 118 117 122 136 147 158 171 170 180 179 179 177 189 170 129 127 123 134 159 152 145 164 152 162 160 92 68 104 166 52 149 230 96 205 188 180 186 212 222 188 221 181 171 165 198 224
116 114 113 118 120 119 118 115 112 119 125 117 117 137 158 176 189 191 182 169 169 122 118 131 103 103 126 168 166 157 176 163 159 131 147 146 138 131 161 232 202 232 188 218 108 208 203 198 194 190 190 204 210 235
127 130 130 128 123 120 121 120 118 117 123 122 119 121 139 156 170 184 191 187 181 133 123 129 132 116 69 150 179 166 186 170 155 144 106 126 147 198 210 188 174 207 148 187 250 245 208 229 216 206 206 214 204 176
130 132 133 134 135 134 124 121 121 118 116 122 125 115 113 131 142 160 174 168 179 179 136 130 128 107 92 55 111 154 164 167 153 128 97 200 148 152 92 63 251 192 186 173 226 207 191 228 217 208 204 213 208 180
137 136 134 130 125 124 126 123 123 120 114 114 115 114 118 129 133 134 112 141 148 143 109 87 109 108 125 140 137 144 154 156 142 113 116 150 168 196 131 207 257 228 223 235 289 220 206 223 181 198 203 202 200 186
127 124 122 121 121 118 118 119 119 119 115 111 105 106 113 131 149 101 109 124 133 134 97 94 62 123 138 135 114 104 128 125 130 126 137 147 169 219 130 206 249 223 226 228 228 186 170 181 194 198 200 190 193 184
118 117 115 115 117 117 116 116 116 118 119 113 105 99 99 103 104 86 98 124 122 105 90 103 91 126 130 68 71 74 65 80 60 101 134 150 169 213 253 237 256 228 217 209 196 200 201 191 188 188 192 193 186 202
117 117 118 120 121 119 116 116 120 122 124 124 113 104 99 76 64 81 90 112 112 88 105 100 132 145 151 88 83 79 76 48 6 73 213 170 243 225 238 231 226 217 209 204 192 205 194 186 182 188 196 191 209 205
124 120 122 123 123 123 125 127 128 133 138 136 124 69 71 70 98 98 69 87 82 52 64 82 117 119 140 98 66 83 51 114 57 255 163 220 261 252 258 261 250 235 217 204 191 193 198 197 201 201 207 206 203 213
131 126 129 129 128 126 127 132 138 138 137 128 74 65 112 104 76 58 62 45 17 50 60 110 132 140 155 121 147 150 164 116 28 278 159 267 264 255 294 280 236 231 211 215 219 232 221 234 214 201 196 193 204 205
140 136 136 133 131 126 122 129 138 136 113 99 107 112 104 78 69 72 360 28 39 159 136 121 121 106 135 139 118 174 113 177 229 159 116 265 256 277 299 278 206 206 207 210 217 230 231 208 194 189 184 186 191 176
152 149 149 143 137 131 119 117 122 102 103 84 66 70 35 34 48 105 145 322 351 180 161 145 124 118 131 119 86 162 170 214 140 197 250 239 279 285 307 192 174 176 192 202 209 212 199 176 168 175 186 176 171 164
172 165 163 161 153 145 138 131 134 130 79 53 47 28 77 352 291 177 169 147 103 184 156 151 146 120 137 140 143 160 223 122 246 236 246 262 300 270 250 184 185 178 182 193 195 188 179 170 168 168 165 168 167 164
175 169 170 172 170 165 164 163 160 148 62 61 48 100 160 83 89 50 164 36 93 155 151 143 102 147 115 101 192 82 82 236 213 235 239 297 316 250 206 184 182 189 190 192 191 187 176 171 172 167 161 166 164 166
162 171 177 178 178 173 167 163 160 146 75 81 105 90 160 40 91 122 26 62 73 149 150 142 122 89 212 141 152 188 169 233 245 222 297 320 298 234 198 187 188 197 204 202 195 182 177 176 173 170 166 169 167 167
170 166 182 187 185 174 167 156 138 141 148 51 26 211 181 65 90 84 99 115 155 166 108 113 165 205 125 149 215 186 212 238 322 316 327 321 303 243 199 193 196 202 203 203 195 189 180 179 179 180 178 173 171 169
173 170 174 181 182 173 167 155 139 127 108 233 259 14 218 201 129 110 109 77 112 201 186 238 323 194 198 205 216 0 359 351 343 332 325 324 306 264 207 200 211 213 209 200 201 197 194 192 191 189 188 185 181 184
182 163 172 171 173 152 130 156 159 120 233 256 250 255 263 254 255 250 254 270 244 208 200 195 228 228 212 171 148 79 39 27 14 3 350 337 318 278 238 222 219 218 211 204 206 207 205 203 203 199 198 198 198 201
165 167 180 179 176 128 132 114 180 163 245 230 240 253 257 263 270 276 273 258 235 219 196 212 206 227 156 130 318 343 344 354 352 351 355 351 316 277 263 249 242 230 207 205 211 212 208 208 202 206 212 204 205 210
150 146 152 161 146 122 121 149 173 210 254 246 263 248 255 255 258 262 266 259 241 222 223 242 253 258 274 261 277 294 308 314 310 312 321 325 324 287 260 247 240 229 218 216 216 217 218 219 213 215 211 204 204 210
147 148 142 146 114 167 188 194 191 194 227 242 224 215 242 241 246 257 257 229 243 248 250 257 263 269 268 269 278 285 286 285 292 290 288 299 312 293 269 253 241 230 224 227 225 223 225 222 216 210 211 205 206 208
150 153 133 137 152 186 172 190 190 212 213 233 214 217 227 213 225 188 218 225 250 273 278 275 268 267 272 278 276 274 273 267 269 269 277 278 282 303 271 248 254 242 235 235 231 226 223 219 220 215 211 208 211 213
153 139 149 174 179 189 170 196 206 228 215 227 205 240 230 223 238 223 230 248 269 281 277 250 257 275 283 280 261 252 255 249 252 261 260 255 258 272 278 250 256 269 260 253 242 232 224 219 218 218 218 219 219 223
156 177 185 173 179 175 164 243 218 210 218 211 182 295 252 214 134 281 237 273 291 290 281 274 269 278 293 291 279 254 247 249 257 264 249 245 254 255 262 262 254 258 259 252 242 236 228 223 224 226 225 228 228 229
144 193 181 191 184 175 200 180 212 213 158 168 242 231 242 136 135 254 146 19 11 3 348 320 299 305 311 336 287 260 254 256 259 258 257 251 249 245 248 253 258 258 262 261 254 250 244 237 233 234 235 234 234 233
202 231 202 202 196 197 234 233 224 151 158 199 228 162 104 169 243 228 107 34 350 346 331 341 339 313 303 326 348 11 207 248 245 247 241 239 242 239 243 250 255 258 266 270 269 263 259 258 252 246 243 240 241 240
217 193 178 185 203 204 163 183 169 205 222 216 166 171 186 198 222 174 269 359 343 332 324 337 328 325 294 293 323 323 319 295 280 262 249 244 244 247 249 249 255 256 252 257 262 261 260 259 255 255 253 251 248 243
201 199 186 190 187 208 216 198 217 225 215 180 153 220 250 248 297 303 299 300 299 301 307 321 328 311 305 309 306 302 301 305 298 287 277 273 265 255 260 252 247 251 249 243 247 256 262 258 249 249 254 256 254 249
198 193 192 184 169 211 216 210 228 232 236 241 248 264 282 288 291 299 299 297 285 281 291 294 295 304 310 294 290 290 300 304 305 306 296 286 279 272 269 268 267 264 257 253 247 245 250 247 240 234 235 238 238 237
187 195 210 209 224 234 240 241 259 271 258 263 274 280 295 304 297 290 291 292 287 281 276 276 287 276 286 292 294 298 301 303 301 297 302 305 300 284 291 287 272 271 286 271 256 247 243 245 242 239 241 245 246 244
198 192 196 188 235 247 251 258 264 256 262 280 287 287 282 277 272 284 283 280 275 267 260 270 270 270 272 283 283 286 291 296 295 291 294 293 293 290 297 301 284 287 284 281 269 255 242 240 241 241 240 242 246 249
201 208 219 246 235 234 236 231 244 265 259 260 265 267 264 261 256 267 272 266 275 263 262 267 281 284 294 294 289 296 298 295 293 295 298 300 297 289 295 301 297 301 283 271 271 262 247 240 241 240 239 241 243 246